Stations météo

réclame
Mon MeteoGroup
Cabauw Tower, Pays-Bas (6348): Température de l'air & dewpoint: 08.10.2019 20:00:00 - 14.10.2019 20:00:00 (CEST)Cabauw Tower, Pays-Bas (6348): Température de l'air 5cm: 08.10.2019 20:00:00 - 14.10.2019 20:00:00 (CEST)Cabauw Tower, Pays-Bas (6348): Vitesse du vent & gusts: 08.10.2019 20:00:00 - 14.10.2019 20:00:00 (CEST)Cabauw Tower, Pays-Bas (6348): Direction du vent: 08.10.2019 20:00:00 - 14.10.2019 20:00:00 (CEST)Cabauw Tower, Pays-Bas (6348): reduced air pressure: 08.10.2019 20:00:00 - 14.10.2019 20:00:00 (CEST)Cabauw Tower, Pays-Bas (6348): visibility: 08.10.2019 20:00:00 - 14.10.2019 20:00:00 (CEST)Cabauw Tower, Pays-Bas (6348): Quantités de précipitations: 08.10.2019 20:00:00 - 14.10.2019 20:00:00 (CEST)
Date & Time tt [°C] td [°C] tt 5cm [°C] ff [km/h] ff [knt] fx [km/h] fx [knt] dd ppp [hPa] vv [km] rr [mm]
14.10.2019 20:00:00 17,1 15,7 16,1 11 6 18 10 E 1006,1 14 -
14.10.2019 19:00:00 17,0 15,7 16,0 7 4 14 8 E 1006,7 14 0,0
14.10.2019 18:00:00 17,7 15,7 16,9 11 6 18 10 E 1006,3 15 0,0
14.10.2019 17:00:00 17,6 15,7 17,2 7 4 22 12 ENE 1007,1 13 0,0
14.10.2019 16:00:00 16,8 15,0 16,6 11 6 29 16 ENE 1008,0 12 0,0
14.10.2019 15:00:00 16,2 14,2 16,5 18 10 32 18 E 1008,6 12 0,0
14.10.2019 14:00:00 15,5 13,8 15,5 14 8 22 12 E 1009,8 15 0,3
14.10.2019 13:00:00 14,6 13,3 14,3 14 8 22 12 E 1010,8 7 2,1
14.10.2019 12:00:00 14,9 13,2 14,9 11 6 18 10 E 1012,1 13 0,0
14.10.2019 11:00:00 14,2 13,1 14,3 11 6 18 10 E 1012,2 10 0,0
14.10.2019 10:00:00 13,5 13,1 13,3 7 4 11 6 E 1012,9 7 0,0
14.10.2019 09:00:00 12,9 12,6 12,4 7 4 11 6 ESE 1012,9 8 0,0
14.10.2019 08:00:00 12,5 12,3 11,3 4 2 7 4 ESE 1013,1 7 0,0
14.10.2019 07:00:00 12,5 12,2 11,8 4 2 7 4 SSE 1013,1 10 0,0
14.10.2019 06:00:00 12,5 12,2 11,7 7 4 11 6 S 1012,8 15 0,0
14.10.2019 05:00:00 12,4 12,0 11,4 7 4 14 8 S 1012,9 11 0,0
14.10.2019 04:00:00 12,0 11,9 10,8 7 4 11 6 SSW 1012,2 15 0,0
14.10.2019 03:00:00 12,4 12,0 11,4 11 6 14 8 SW 1012,8 13 0,0
14.10.2019 02:00:00 13,2 12,3 12,1 11 6 22 12 SW 1012,2 16 0,0
14.10.2019 01:00:00 14,1 13,0 13,3 14 8 25 14 SW 1011,6 17 0,0
14.10.2019 00:00:00 14,6 13,1 13,8 18 10 29 16 SW 1010,7 24 0,0
13.10.2019 23:00:00 15,2 13,5 14,4 22 12 32 18 SW 1010,0 25 0,0
13.10.2019 22:00:00 15,5 13,9 15,0 18 10 29 16 SW 1009,2 23 0,0
13.10.2019 21:00:00 15,8 13,6 15,1 22 12 40 21 WSW 1008,3 28 0,0
13.10.2019 20:00:00 16,9 15,3 16,1 29 16 54 29 WSW 1007,1 23 3,6
13.10.2019 19:00:00 17,6 16,2 17,0 29 16 58 31 SW 1005,8 5 2,3
13.10.2019 18:00:00 20,5 15,9 19,6 25 14 36 19 SSW 1004,9 38 0,0
13.10.2019 17:00:00 20,9 16,1 20,2 25 14 47 25 SSW 1004,8 34 0,0
13.10.2019 16:00:00 21,0 15,9 20,2 29 16 40 21 SSW 1005,2 38 0,0
13.10.2019 15:00:00 21,3 16,6 21,0 25 14 40 21 S 1004,5 36 0,0
13.10.2019 14:00:00 21,4 16,8 21,4 25 14 40 21 S 1004,7 35 0,0
13.10.2019 13:00:00 20,0 17,0 19,4 18 10 32 18 S 1005,7 30 0,0
13.10.2019 12:00:00 18,2 16,5 17,7 22 12 36 19 S 1006,1 24 0,0
13.10.2019 11:00:00 17,4 16,2 17,1 22 12 32 18 S 1006,2 19 0,0
13.10.2019 10:00:00 15,9 15,3 15,4 14 8 25 14 S 1006,8 12 0,0
13.10.2019 09:00:00 15,5 15,0 14,7 18 10 25 14 S 1006,9 12 0,0
13.10.2019 08:00:00 13,9 13,6 13,1 14 8 14 8 SSE 1006,8 7 0,0
13.10.2019 07:00:00 13,2 13,1 11,4 7 4 14 8 SSE 1007,2 6 0,0
13.10.2019 06:00:00 13,2 13,0 12,5 11 6 14 8 SSE 1007,5 6 0,0
13.10.2019 05:00:00 12,4 12,4 12,1 4 2 7 4 SE 1007,7 4,3 0,0
13.10.2019 04:00:00 11,9 11,8 11,4 4 2 7 4 ESE 1007,9 3,1 0,0
13.10.2019 03:00:00 11,0 10,9 10,6 4 2 11 6 E 1008,4 2,5 0,0
13.10.2019 02:00:00 11,0 10,8 10,2 11 6 14 8 E 1008,7 3,6 0,0
13.10.2019 01:00:00 11,6 11,3 11,2 11 6 14 8 E 1009,1 4,8 0,0
13.10.2019 00:00:00 11,8 11,4 11,6 7 4 18 10 E 1009,9 4,7 0,0
12.10.2019 23:00:00 11,8 11,4 11,7 7 4 11 6 NNE 1010,1 4,5 0,1
12.10.2019 22:00:00 11,9 11,7 11,7 7 4 18 10 ENE 1010,0 4,8 0,1
12.10.2019 21:00:00 12,0 11,8 11,8 4 2 14 8 E 1009,8 4,6 0,0
12.10.2019 20:00:00 11,8 11,8 11,6 4 2 14 8 E 1009,4 3,5 0,3
12.10.2019 19:00:00 11,5 11,4 11,5 7 4 14 8 NNE 1009,9 9 0,0
12.10.2019 18:00:00 11,9 11,7 11,8 7 4 11 6 ENE 1009,7 9 0,1
12.10.2019 17:00:00 11,9 11,6 11,9 7 4 14 8 N 1010,2 7 0,4
12.10.2019 16:00:00 12,3 12,0 12,6 4 2 11 6 NW 1010,2 5 0,9
12.10.2019 15:00:00 12,3 12,1 12,6 7 4 11 6 W 1010,5 2,8 0,6
12.10.2019 14:00:00 12,8 12,3 13,2 7 4 14 8 W 1010,3 3,1 0,2
12.10.2019 13:00:00 12,7 12,3 13,0 11 6 18 10 W 1010,1 7 0,1
12.10.2019 12:00:00 12,2 11,7 12,5 14 8 22 12 W 1009,7 2,7 0,1
12.10.2019 11:00:00 13,0 12,7 13,2 14 8 18 10 SW 1009,2 2,9 0,1
12.10.2019 10:00:00 12,8 12,7 12,9 11 6 14 8 SW 1008,5 3,0 0,3
12.10.2019 09:00:00 12,6 12,5 12,4 7 4 14 8 SW 1007,9 2,5 0,2
12.10.2019 08:00:00 12,5 12,3 12,4 11 6 14 8 WSW 1007,5 2,0 0,5
12.10.2019 07:00:00 12,6 12,3 12,4 7 4 14 8 W 1007,0 2,9 0,0
12.10.2019 06:00:00 12,7 12,2 12,5 11 6 22 12 W 1006,9 11 0,0
12.10.2019 05:00:00 13,6 13,0 13,5 11 6 47 25 WNW 1006,8 11 0,1
12.10.2019 04:00:00 16,4 12,7 15,6 29 16 47 25 SW 1006,1 42 0,0
12.10.2019 03:00:00 16,5 12,7 15,7 32 18 47 25 SW 1006,4 42 0,0
12.10.2019 02:00:00 16,6 12,8 15,9 32 18 47 25 SW 1006,5 43 0,0
12.10.2019 01:00:00 16,7 12,8 15,9 29 16 43 23 SW 1006,8 47 0,0
12.10.2019 00:00:00 16,5 12,9 15,8 32 18 43 23 SSW 1006,9 46 0,0
11.10.2019 23:00:00 16,3 13,0 15,7 29 16 58 31 SW 1007,4 48 0,0
11.10.2019 22:00:00 16,2 13,0 15,4 32 18 50 27 SSW 1007,1 50 0,0
11.10.2019 21:00:00 15,9 13,0 15,4 36 19 50 27 SSW 1006,9 48 0,0
11.10.2019 20:00:00 15,8 12,8 15,1 32 18 47 25 SSW 1007,2 49 0,0
11.10.2019 19:00:00 15,0 12,7 14,4 29 16 40 21 SSW 1007,4 48 0,0
11.10.2019 18:00:00 14,7 12,9 14,2 29 16 47 25 SSW 1007,7 43 0,0
11.10.2019 17:00:00 14,5 13,0 14,1 36 19 50 27 SSW 1008,0 35 0,1
11.10.2019 16:00:00 14,3 13,1 14,0 32 18 58 31 SSW 1008,5 15 0,5
11.10.2019 15:00:00 14,5 13,0 14,3 40 21 50 27 SSW 1008,8 20 0,1
11.10.2019 14:00:00 14,7 13,2 14,4 36 19 50 27 SSW 1009,4 19 0,1
11.10.2019 13:00:00 14,5 12,7 14,3 32 18 50 27 SSW 1010,1 25 0,0
11.10.2019 12:00:00 14,4 12,7 14,0 32 18 50 27 SSW 1010,1 22 0,0
11.10.2019 11:00:00 14,3 12,3 14,1 32 18 50 27 SSW 1010,4 22 0,0
11.10.2019 10:00:00 13,7 11,9 13,4 32 18 43 23 SSW 1010,5 21 0,0
11.10.2019 09:00:00 13,3 11,5 12,8 25 14 47 25 SSW 1010,4 22 0,0
11.10.2019 08:00:00 13,2 11,3 12,7 32 18 43 23 SSW 1010,5 24 0,0
11.10.2019 07:00:00 12,9 11,3 12,4 32 18 47 25 SSW 1010,4 14 0,1
11.10.2019 06:00:00 13,6 10,9 13,1 32 18 50 27 SSW 1010,8 26 0,0
11.10.2019 05:00:00 13,6 10,2 12,7 25 14 40 21 SSW 1010,9 30 0,1
11.10.2019 04:00:00 13,2 10,4 12,4 29 16 47 25 SSW 1011,4 15 0,2
11.10.2019 03:00:00 13,6 9,8 12,9 29 16 47 25 SSW 1011,9 29 0,0
11.10.2019 02:00:00 13,6 9,5 13,0 29 16 47 25 SSW 1011,7 26 0,0
11.10.2019 01:00:00 13,9 10,0 13,2 29 16 43 23 SSW 1012,5 21 0,0
11.10.2019 00:00:00 13,3 10,4 12,5 29 16 40 21 SW 1012,8 18 0,0
10.10.2019 23:00:00 13,6 10,3 12,8 25 14 36 19 SW 1013,1 18 0,0
10.10.2019 22:00:00 12,9 9,7 12,2 25 14 40 21 SSW 1013,2 21 0,0
10.10.2019 21:00:00 13,3 9,9 12,3 22 12 32 18 SSW 1013,3 20 0,0
10.10.2019 20:00:00 12,1 9,6 10,7 18 10 25 14 SSW 1013,5 17 0,0
10.10.2019 19:00:00 12,9 9,5 11,7 18 10 29 16 SW 1013,3 20 0,0
10.10.2019 18:00:00 13,5 9,4 12,7 22 12 40 21 WSW 1013,2 25 0,0
10.10.2019 17:00:00 14,4 9,6 14,0 29 16 43 23 WSW 1012,9 28 0,0
10.10.2019 16:00:00 14,2 9,5 13,5 29 16 43 23 WSW 1012,8 24 0,0
10.10.2019 15:00:00 12,4 10,4 11,8 22 12 50 27 WSW 1012,6 19 0,3
10.10.2019 14:00:00 14,3 9,6 14,5 29 16 43 23 WSW 1011,9 28 0,0
10.10.2019 13:00:00 15,3 9,9 15,9 32 18 43 23 WSW 1011,5 28 0,0
10.10.2019 12:00:00 14,1 11,3 12,9 25 14 40 21 SW 1011,2 29 0,0
10.10.2019 11:00:00 12,5 10,7 12,6 22 12 36 19 SW 1010,8 21 0,4
10.10.2019 10:00:00 11,8 10,3 12,0 22 12 29 16 SW 1010,0 27 0,1
10.10.2019 09:00:00 10,3 9,5 9,6 18 10 25 14 SW 1009,1 25 0,0
10.10.2019 08:00:00 9,6 9,0 8,8 18 10 29 16 SSW 1007,9 16 0,0
10.10.2019 07:00:00 10,2 9,4 9,5 18 10 25 14 SW 1007,5 20 0,2
10.10.2019 06:00:00 9,8 9,1 9,1 18 10 29 16 SSW 1006,9 14 0,0
10.10.2019 05:00:00 10,3 9,2 9,8 22 12 36 19 SW 1006,5 18 0,3
10.10.2019 04:00:00 9,9 9,1 9,0 18 10 25 14 SSW 1006,2 15 0,0
10.10.2019 03:00:00 9,9 8,9 9,2 18 10 25 14 SSW 1005,9 20 0,0
10.10.2019 02:00:00 10,5 9,4 10,0 18 10 36 19 SW 1005,8 16 0,6
10.10.2019 01:00:00 10,9 9,1 9,8 22 12 40 21 SW 1005,6 28 0,0
10.10.2019 00:00:00 11,0 9,4 10,1 29 16 40 21 SSW 1005,1 26 0,1
09.10.2019 23:00:00 11,1 9,9 10,2 22 12 36 19 SSW 1005,0 24 0,0
09.10.2019 22:00:00 11,2 10,0 10,6 14 8 25 14 SSW 1005,1 22 0,0
09.10.2019 21:00:00 11,4 10,0 10,7 22 12 29 16 SW 1004,9 30 0,0
09.10.2019 20:00:00 11,5 10,4 10,9 18 10 32 18 SW 1004,5 13 0,5
09.10.2019 19:00:00 11,7 9,9 11,2 25 14 36 19 SW 1004,3 35 0,2
09.10.2019 18:00:00 12,1 9,8 11,6 25 14 40 21 SW 1003,9 14 0,4
09.10.2019 17:00:00 13,5 9,4 13,4 25 14 43 23 SW 1003,6 44 0,0
09.10.2019 16:00:00 13,6 9,1 13,4 32 18 43 23 SW 1003,8 45 0,0
09.10.2019 15:00:00 13,9 9,6 13,9 29 16 43 23 SW 1003,8 38 0,0
09.10.2019 14:00:00 13,0 8,3 13,0 29 16 40 21 SW 1003,9 41 0,0
09.10.2019 13:00:00 12,3 9,9 12,6 32 18 43 23 SSW 1003,8 32 0,0
09.10.2019 12:00:00 12,1 10,3 12,0 29 16 47 25 SSW 1004,4 21 0,0
09.10.2019 11:00:00 12,4 10,4 12,3 29 16 40 21 SSW 1005,0 22 0,0
09.10.2019 10:00:00 11,8 10,6 11,5 25 14 36 19 SSW 1005,4 16 0,0
09.10.2019 09:00:00 11,1 10,2 10,5 22 12 29 16 SSW 1005,6 15 0,0
09.10.2019 08:00:00 10,7 9,8 10,0 22 12 32 18 S 1005,8 14 0,0
09.10.2019 07:00:00 10,7 9,5 10,0 25 14 32 18 SSW 1005,9 14 0,0
09.10.2019 06:00:00 10,8 10,1 10,1 18 10 29 16 SSW 1006,4 14 0,0
09.10.2019 05:00:00 11,3 10,3 10,2 22 12 29 16 SSW 1006,2 15 0,0
09.10.2019 04:00:00 11,6 10,9 11,0 18 10 25 14 SW 1006,2 8 0,4
09.10.2019 03:00:00 11,7 10,2 10,9 18 10 25 14 SW 1006,4 18 0,0
09.10.2019 02:00:00 12,0 10,5 10,8 18 10 29 16 SW 1006,1 15 0,0
09.10.2019 01:00:00 11,8 10,9 10,7 22 12 29 16 SW 1005,7 13 0,0
09.10.2019 00:00:00 10,4 9,5 9,5 14 8 25 14 SSW 1005,6 19 0,0
08.10.2019 23:00:00 11,1 10,0 10,1 14 8 61 33 SW 1005,9 19 0,0
08.10.2019 22:00:00 13,0 11,3 11,9 18 10 32 18 SSW 1005,3 14 0,0
08.10.2019 21:00:00 12,4 10,7 11,4 18 10 29 16 SSW 1005,1 14 0,0
08.10.2019 20:00:00 12,2 10,4 10,5 14 8 22 12 SW 1005,3 16 0,0

tt = Température de l'air
td = dewpoint
tt 5cm = Température de l'air 5cm
ff = Vitesse du vent
fx = gusts
dd = Direction du vent
ppp = reduced air pressure
vv = visibility
rr = Quantités de précipitations

stations d'obs. à proximité